TimeEST,TemperatureF,Dew PointF,Humidity,Sea Level PressureIn,VisibilityMPH,Wind Direction,Wind SpeedMPH,Gust SpeedMPH,PrecipitationIn,Events,Conditions,WindDirDegrees,DateUTC
12:15 AM,5.7,1.2,82,30.30,10.0,Calm,Calm,-,N/A,,Unknown,0,2013-01-19 05:15:00
12:35 AM,6.4,1.6,80,30.29,10.0,Calm,Calm,-,N/A,,Unknown,0,2013-01-19 05:35:00
12:55 AM,7.0,1.9,80,30.29,10.0,Calm,Calm,-,N/A,,Unknown,0,2013-01-19 05:55:00
1:15 AM,7.3,2.5,81,30.29,10.0,Calm,Calm,-,N/A,,Unknown,0,2013-01-19 06:15:00
1:35 AM,7.9,3.2,81,30.27,10.0,Calm,Calm,-,N/A,,Unknown,0,2013-01-19 06:35:00
2:15 AM,9.0,3.9,80,30.27,7.0,Calm,Calm,-,N/A,Snow,Light Snow,0,2013-01-19 07:15:00
2:35 AM,9.1,3.7,79,30.26,10.0,Calm,Calm,-,N/A,,Unknown,0,2013-01-19 07:35:00
2:55 AM,9.5,3.7,77,30.25,10.0,Calm,Calm,-,N/A,,Unknown,0,2013-01-19 07:55:00
3:35 AM,10.2,4.1,76,30.22,10.0,Calm,Calm,-,N/A,,Unknown,0,2013-01-19 08:35:00
3:55 AM,10.4,4.1,76,30.21,10.0,Calm,Calm,-,N/A,,Unknown,0,2013-01-19 08:55:00
4:15 AM,10.4,4.8,78,30.20,5.0,Calm,Calm,-,N/A,Snow,Light Snow,0,2013-01-19 09:15:00
4:35 AM,10.4,5.5,81,30.19,2.0,Calm,Calm,-,N/A,Snow,Light Snow,0,2013-01-19 09:35:00
4:55 AM,10.6,6.8,85,30.18,2.0,Calm,Calm,-,N/A,Snow,Light Snow,0,2013-01-19 09:55:00
5:15 AM,10.6,7.3,87,30.16,2.0,Calm,Calm,-,N/A,Snow,Light Snow,0,2013-01-19 10:15:00
5:35 AM,10.8,7.7,87,30.16,2.5,Calm,Calm,-,N/A,Snow,Light Snow,0,2013-01-19 10:35:00
5:55 AM,11.3,8.2,87,30.15,10.0,Calm,Calm,-,N/A,,Unknown,0,2013-01-19 10:55:00
6:15 AM,11.3,8.4,88,30.16,10.0,Calm,Calm,-,N/A,,Unknown,0,2013-01-19 11:15:00
6:35 AM,11.7,8.6,88,30.15,10.0,Calm,Calm,-,N/A,,Unknown,0,2013-01-19 11:35:00
6:55 AM,12.0,9.0,88,30.14,10.0,Calm,Calm,-,N/A,,Unknown,0,2013-01-19 11:55:00
8:15 AM,13.1,9.7,86,30.11,10.0,Calm,Calm,-,N/A,,Unknown,0,2013-01-19 13:15:00
8:55 AM,14.0,10.4,86,30.11,10.0,Calm,Calm,-,N/A,,Unknown,0,2013-01-19 13:55:00
9:15 AM,14.9,11.1,85,30.10,10.0,Calm,Calm,-,N/A,,Unknown,0,2013-01-19 14:15:00
9:35 AM,15.8,11.5,83,30.10,10.0,Calm,Calm,-,N/A,,Unknown,0,2013-01-19 14:35:00
9:55 AM,17.2,12.2,81,30.09,10.0,Calm,Calm,-,N/A,,Unknown,0,2013-01-19 14:55:00
10:35 AM,19.0,13.6,79,30.08,10.0,Calm,Calm,-,N/A,,Unknown,0,2013-01-19 15:35:00
10:55 AM,20.3,14.2,77,30.06,10.0,Calm,Calm,-,N/A,,Unknown,0,2013-01-19 15:55:00
11:15 AM,21.9,14.7,74,30.04,10.0,Calm,Calm,-,N/A,,Unknown,0,2013-01-19 16:15:00
11:35 AM,22.8,15.1,72,30.02,10.0,Calm,Calm,-,N/A,,Unknown,0,2013-01-19 16:35:00
12:15 PM,25.5,15.8,67,29.99,10.0,Calm,Calm,-,N/A,,Unknown,0,2013-01-19 17:15:00
1:15 PM,27.5,15.8,61,29.96,10.0,Calm,Calm,-,N/A,,Unknown,0,2013-01-19 18:15:00
1:35 PM,28.0,15.8,60,29.96,10.0,Calm,Calm,-,N/A,,Unknown,0,2013-01-19 18:35:00
1:55 PM,28.8,16.0,59,29.96,10.0,Calm,Calm,-,N/A,,Unknown,0,2013-01-19 18:55:00
2:15 PM,29.3,16.5,59,29.96,10.0,Calm,Calm,-,N/A,,Unknown,0,2013-01-19 19:15:00
2:55 PM,30.0,17.2,59,29.95,10.0,Calm,Calm,-,N/A,,Unknown,0,2013-01-19 19:55:00
3:35 PM,30.2,17.1,58,29.94,10.0,Calm,Calm,-,N/A,,Unknown,0,2013-01-19 20:35:00
3:55 PM,30.4,18.1,60,29.94,10.0,Calm,Calm,-,N/A,,Unknown,0,2013-01-19 20:55:00
4:15 PM,30.2,18.3,61,29.94,10.0,Calm,Calm,-,N/A,,Unknown,0,2013-01-19 21:15:00
4:35 PM,30.2,18.3,61,29.94,10.0,Calm,Calm,-,N/A,,Unknown,0,2013-01-19 21:35:00
4:55 PM,30.0,19.0,64,29.94,10.0,Calm,Calm,-,N/A,,Unknown,0,2013-01-19 21:55:00
5:15 PM,29.8,20.5,68,29.94,10.0,Calm,Calm,-,N/A,,Unknown,0,2013-01-19 22:15:00
5:35 PM,29.3,20.7,70,29.94,10.0,Calm,Calm,-,N/A,,Unknown,0,2013-01-19 22:35:00
5:55 PM,28.8,22.5,77,29.94,10.0,Calm,Calm,-,N/A,,Unknown,0,2013-01-19 22:55:00
6:15 PM,28.6,22.1,77,29.94,10.0,Calm,Calm,-,N/A,,Unknown,0,2013-01-19 23:15:00
6:35 PM,28.8,22.8,78,29.94,10.0,Calm,Calm,-,N/A,,Unknown,0,2013-01-19 23:35:00
6:55 PM,28.4,21.0,74,29.94,10.0,Calm,Calm,-,N/A,,Unknown,0,2013-01-19 23:55:00
7:15 PM,28.2,23.0,81,29.94,10.0,Calm,Calm,-,N/A,,Unknown,0,2013-01-20 00:15:00
7:35 PM,27.3,22.8,83,29.93,10.0,Calm,Calm,-,N/A,,Unknown,0,2013-01-20 00:35:00
7:55 PM,27.5,22.1,80,29.93,10.0,Calm,Calm,-,N/A,,Unknown,0,2013-01-20 00:55:00
8:15 PM,26.8,22.6,84,29.93,10.0,Calm,Calm,-,N/A,,Unknown,0,2013-01-20 01:15:00
8:35 PM,26.6,22.1,83,29.92,10.0,Calm,Calm,-,N/A,,Unknown,0,2013-01-20 01:35:00
9:15 PM,26.2,22.8,87,29.91,10.0,Calm,Calm,-,N/A,,Unknown,0,2013-01-20 02:15:00
9:35 PM,26.1,22.8,88,29.90,10.0,Calm,Calm,-,N/A,,Unknown,0,2013-01-20 02:35:00
9:55 PM,26.1,22.5,86,29.89,10.0,Calm,Calm,-,N/A,,Unknown,0,2013-01-20 02:55:00
10:15 PM,26.2,22.5,86,29.88,10.0,Calm,Calm,-,N/A,,Unknown,0,2013-01-20 03:15:00
10:35 PM,26.2,22.5,86,29.87,10.0,Calm,Calm,-,N/A,,Unknown,0,2013-01-20 03:35:00
10:55 PM,26.1,22.8,88,29.86,10.0,Calm,Calm,-,N/A,,Unknown,0,2013-01-20 03:55:00
11:15 PM,26.1,23.0,88,29.84,10.0,Calm,Calm,-,N/A,,Unknown,0,2013-01-20 04:15:00
11:35 PM,26.1,23.0,88,29.83,10.0,Calm,Calm,-,N/A,,Unknown,0,2013-01-20 04:35:00
11:55 PM,25.9,23.5,91,29.81,10.0,Calm,Calm,-,N/A,,Unknown,0,2013-01-20 04:55:00